Change the Weather History Date:

Wednesday, April 3, 2013

  Actual Average Record
Temperature  
Mean Temperature 63 °F 58 °F  
Max Temperature 72 °F 67 °F 88 °F (1960)
Min Temperature 54 °F 48 °F 36 °F (1963)
Degree Days  
Heating Degree Days 2 8  
Month to date heating degree days 10 24  
Since 1 July heating degree days 1352 1637  
Cooling Degree Days 0 0  
Month to date cooling degree days 0 0  
Year to date cooling degree days 24 13  
Growing Degree Days 12 (Base 50)    
Moisture  
Dew Point 52 °F    
Average Humidity 68    
Maximum Humidity 86    
Minimum Humidity 49    
Precipitation  
Precipitation 0.00 in 0.03 in 0.59 in (1958)
Month to date precipitation 0.00 0.08  
Year to date precipitation 2.07 9.91  
Since 1 July precipitation 4.78 14.15  
Sea Level Pressure  
Sea Level Pressure 30.06 in    
Wind  
Wind Speed 6 mph (WNW)    
Max Wind Speed 13 mph    
Max Gust Speed 18 mph    
Visibility 6 miles    
Events      
T = Trace of Precipitation, MM = Missing Value Source: NWS Daily Summary

Daily Weather History Graph

Daily Weather History Graph

Search for Another Location

Airport or City:

Trip Planner

Search our weather history database for the weather conditions in past years. The results will help you decide how hot, cold, wet, or windy it might be!

Date:

Astronomy

Apr. 03, 2013 Rise Set
Actual Time 6:40 AM PDT 7:19 PM PDT
Civil Twilight 6:15 AM PDT 7:44 PM PDT
Nautical Twilight 5:45 AM PDT 8:14 PM PDT
Astronomical Twilight 5:14 AM PDT 8:44 PM PDT
Moon 2:08 AM PDT (4/3) 12:52 PM PDT (4/3)
Length of Visible Light 13h 29m
Length of Day
12h 38m
Last Quarter, 43% of the Moon is Illuminated
Apr 3
Last Quarter
Apr 10
New
Apr 18
First Quarter
Apr 25
Full
May 2
Last Quarter

Hourly Weather History & Observations

Time (PDT) Temp. Dew Point Humidity Pressure Visibility Wind Dir Wind Speed Gust Speed Precip Events Conditions
12:55 AM 55.0 °F 50.0 °F 83% 30.06 in 7.0 mi Calm Calm - N/A   Clear
1:55 AM 55.0 °F 50.0 °F 83% 30.06 in 7.0 mi Calm Calm - N/A   Clear
2:20 AM 53.6 °F 48.2 °F 82% 30.04 in 9.0 mi NNE 3.5 mph - N/A   Scattered Clouds
2:29 AM 55.4 °F 48.2 °F 77% 30.04 in 9.0 mi Calm Calm - N/A   Mostly Cloudy
2:47 AM 57.2 °F 51.8 °F 82% 30.03 in 6.0 mi North 3.5 mph - N/A   Haze
2:55 AM 57.0 °F 52.0 °F 83% 30.06 in 6.0 mi NW 3.5 mph - N/A   Haze
3:19 AM 57.2 °F 53.6 °F 88% 30.03 in 5.0 mi WNW 4.6 mph - N/A   Haze
3:55 AM 57.9 °F 53.1 °F 84% 30.06 in 5.0 mi NW 3.5 mph - N/A   Haze
4:55 AM 57.9 °F 53.1 °F 84% 30.06 in 4.0 mi Calm Calm - N/A   Haze
5:55 AM 57.9 °F 52.0 °F 81% 30.07 in 5.0 mi East 3.5 mph - N/A   Haze
6:55 AM 57.0 °F 51.1 °F 81% 30.09 in 4.0 mi ENE 6.9 mph - N/A   Haze
7:33 AM 55.4 °F 51.8 °F 88% 30.07 in 4.0 mi ENE 6.9 mph - N/A   Haze
7:47 AM 55.4 °F 51.8 °F 88% 30.07 in 3.0 mi NE 5.8 mph - N/A   Haze
7:55 AM 55.9 °F 51.1 °F 84% 30.09 in 4.0 mi NE 4.6 mph - N/A   Haze
8:10 AM 57.2 °F 50.0 °F 77% 30.07 in 8.0 mi Calm Calm - N/A   Scattered Clouds
8:55 AM 57.9 °F 50.0 °F 75% 30.10 in 9.0 mi Variable 4.6 mph - N/A   Clear
9:55 AM 64.0 °F 54.0 °F 70% 30.11 in 6.0 mi WSW 9.2 mph - N/A   Haze
10:55 AM 64.9 °F 54.0 °F 68% 30.11 in 5.0 mi West 8.1 mph - N/A   Haze
11:55 AM 66.9 °F 54.0 °F 63% 30.10 in 6.0 mi WSW 10.4 mph - N/A   Haze
12:55 PM 66.0 °F 54.0 °F 65% 30.10 in 6.0 mi SW 10.4 mph - N/A   Haze
1:55 PM 66.9 °F 54.0 °F 63% 30.09 in 6.0 mi West 9.2 mph - N/A   Haze
2:55 PM 69.1 °F 53.1 °F 57% 30.06 in 7.0 mi West 6.9 mph - N/A   Clear
3:55 PM 71.1 °F 52.0 °F 51% 30.04 in 8.0 mi SSW 3.5 mph - N/A   Clear
4:55 PM 68.0 °F 53.1 °F 59% 30.03 in 7.0 mi West 9.2 mph - N/A   Clear
5:55 PM 64.9 °F 54.0 °F 68% 30.04 in 8.0 mi West 8.1 mph - N/A   Clear
6:55 PM 63.0 °F 54.0 °F 72% 30.04 in 6.0 mi West 5.8 mph - N/A   Haze
7:13 PM 62.6 °F 53.6 °F 72% 30.02 in 5.0 mi West 11.5 mph - N/A   Haze
7:35 PM 60.8 °F 53.6 °F 77% 30.03 in 7.0 mi West 10.4 mph - N/A   Overcast
7:55 PM 60.1 °F 53.1 °F 78% 30.06 in 6.0 mi West 9.2 mph - N/A   Haze
8:26 PM 59.0 °F 53.6 °F 82% 30.05 in 6.0 mi West 8.1 mph - N/A   Haze
8:55 PM 57.9 °F 53.1 °F 84% 30.08 in 4.0 mi Variable 3.5 mph - N/A   Haze
9:55 PM 57.9 °F 53.1 °F 84% 30.09 in 4.0 mi Calm Calm - N/A   Haze
10:55 PM 59.0 °F 53.1 °F 81% 30.09 in 6.0 mi ENE 4.6 mph - N/A   Haze
11:34 PM 59.0 °F 53.6 °F 82% 30.05 in 6.0 mi ENE 8.1 mph - N/A   Haze
11:52 PM 59.0 °F 53.6 °F 82% 30.05 in 6.0 mi Calm Calm - N/A   Haze
11:55 PM 59.0 °F 53.1 °F 81% 30.08 in 5.0 mi Calm Calm - N/A   Haze